Location: Eferding
(48.3167°N, 14.0167°E)
Time: 01:11:18
(UTC+00:00)

ATLAS 5 CENTAUR R/B - Pass Details

Date: 12 November 2019
Orbit: 563 x 1096 km, 63.3° (Epoch: 29 November)

Event Time Altitude Azimuth Distance (km) Brightness Sun altitude
Rises 16:45:39 0° 319° (NW) 3,252 5.7 -12.8°
Reaches altitude 10° 16:47:58 10° 323° (NW) 2,401 4.9 -13.1°
Maximum altitude 16:53:32 63° 45° (NE) 1,000 2.3 -14.0°
Drops below altitude 10° 16:59:56 10° 126° (SE) 2,750 4.5 -15.1°
Enters shadow 17:00:29 - 127° (SE) 2,943 4.6 -15.2°
